K5VP Weather Reports


Display with metric or nautical units.
time (UTC)temp
F
wind
direction
speed
MPH
gust
MPH
rain 1hr
in
rain 24hr
in
rain mn
in
humidity
%
barometer
mb
20260506204805 55 220 0.0 0.0 0.00 0.33 0.12 88 1016.1
20260506204243 55 224 0.0 0.0 0.00 0.33 0.12 88 1016.3
20260506203738 55 225 0.0 0.0 0.00 0.33 0.12 88 1016.0
20260506203228 55 41 0.0 0.0 0.00 0.33 0.12 88 1016.0
20260506202715 55 35 0.0 0.0 0.00 0.33 0.12 89 1016.0
20260506202209 55 34 0.0 0.0 0.00 0.33 0.12 89 1015.6
20260506201711 55 42 0.0 0.0 0.00 0.33 0.12 88 1015.8
20260506201200 56 251 0.0 0.0 0.00 0.33 0.12 90 1016.2
20260506200702 55 251 0.0 0.0 0.00 0.33 0.12 89 1016.4
20260506200145 55 252 0.0 0.0 0.00 0.33 0.12 88 1016.3
20260506195649 55 255 2.0 4.0 0.00 0.33 0.12 89 1016.4
20260506195156 55 260 2.0 78.0 0.00 0.33 0.12 88 1016.4
20260506194636 55 176 0.0 1.0 0.00 0.33 0.12 88 1016.9
20260506194143 55 181 0.0 0.0 0.00 0.33 0.12 88 1016.7
20260506193640 55 127 0.0 0.0 0.00 0.33 0.12 88 1016.4
20260506193138 55 115 0.0 1.0 0.00 0.33 0.12 88 1016.2
20260506192632 55 41 0.0 0.0 0.00 0.33 0.12 88 1016.2
20260506192116 55 76 0.0 0.0 0.00 0.33 0.12 87 1016.4
20260506191617 55 109 0.0 0.0 0.00 0.33 0.12 86 1016.2
20260506191106 55 7 0.0 1.0 0.00 0.33 0.12 86 1016.1
20260506190554 56 55 0.0 1.0 0.00 0.33 0.12 87 1015.9
20260506190036 55 98 0.0 3.0 0.00 0.33 0.12 86 1015.7
20260506185542 55 108 0.0 3.0 0.00 0.33 0.12 86 1015.7
20260506185043 55 96 0.0 0.0 0.00 0.33 0.12 85 1016.2
20260506184549 55 76 0.0 3.0 0.00 0.33 0.12 84 1016.4
20260506184039 56 69 0.0 3.0 0.00 0.33 0.12 85 1016.4
20260506183539 56 67 0.0 1.0 0.00 0.33 0.12 86 1016.5
20260506183038 55 79 0.0 0.0 0.00 0.33 0.12 86 1016.2
20260506182542 55 73 0.0 0.0 0.00 0.33 0.12 86 1016.2
20260506182040 55 89 0.0 3.0 0.00 0.33 0.12 86 1016.1
20260506181520 55 19 0.0 0.0 0.00 0.33 0.12 88 1016.1
20260506181009 54 112 0.0 0.0 0.00 0.33 0.12 89 1015.9
20260506180516 53 94 0.0 3.0 0.00 0.33 0.12 89 1016.0
20260506180013 53 64 0.0 1.0 0.00 0.33 0.12 88 1016.1
20260506175519 53 233 0.0 0.0 0.00 0.33 0.12 88 1016.6
20260506175013 54 111 0.0 3.0 0.00 0.33 0.12 87 1016.4
20260506174456 54 99 0.0 0.0 0.00 0.33 0.12 88 1016.5
20260506173958 54 263 0.0 3.0 0.00 0.33 0.12 88 1016.4
20260506173442 54 58 0.0 0.0 0.00 0.33 0.12 89 1016.3
20260506172930 53 44 0.0 0.0 0.00 0.33 0.12 89 1016.5
20260506172410 53 238 0.0 0.0 0.00 0.33 0.12 89 1016.2
20260506171907 53 109 0.0 0.0 0.00 0.33 0.12 90 1016.1
20260506171349 53 158 0.0 0.0 0.00 0.33 0.12 90 1016.1
20260506170834 53 90 0.0 0.0 0.00 0.33 0.12 90 1016.1
20260506170316 53 76 0.0 0.0 0.00 0.33 0.12 90 1016.1
20260506165814 53 81 0.0 5.0 0.00 0.33 0.12 89 1016.0
20260506165313 53 80 0.0 5.0 0.00 0.33 0.12 89 1015.7
20260506164806 53 50 0.0 5.0 0.00 0.33 0.12 89 1015.6
20260506164246 53 37 0.0 5.0 0.00 0.33 0.12 90 1015.6
20260506163743 53 136 0.0 1.0 0.00 0.33 0.12 90 1015.6
20260506163250 53 55 0.0 5.0 0.00 0.33 0.12 90 1015.7
20260506162730 53 0 0.0 1.0 0.00 0.33 0.12 91 1015.5
20260506162232 53 51 0.0 1.0 0.00 0.33 0.12 91 1015.5
20260506161737 52 53 0.0 0.0 0.00 0.33 0.12 90 1015.8
20260506161236 52 43 0.0 5.0 0.00 0.33 0.12 91 1016.0
20260506160720 52 291 0.0 5.0 0.00 0.33 0.12 92 1016.1
20260506160220 52 26 0.0 2.0 0.00 0.33 0.12 92 1015.9
20260506155701 52 19 0.0 2.0 0.00 0.33 0.12 92 1015.9
20260506155149 51 64 0.0 3.0 0.00 0.33 0.12 93 1016.0
20260506154655 51 83 0.0 1.0 0.00 0.33 0.12 93 1016.2
20260506154149 51 74 0.0 0.0 0.00 0.33 0.12 93 1016.4
20260506153631 51 86 0.0 0.0 0.00 0.33 0.12 93 1016.3
20260506153134 51 63 0.0 0.0 0.00 0.34 0.12 93 1016.1
20260506152623 51 51 0.0 3.0 0.00 0.34 0.12 93 1016.1
20260506152115 51 101 0.0 3.0 0.00 0.36 0.12 93 1016.0
20260506151605 51 85 0.0 0.0 0.00 0.36 0.12 93 1016.0
20260506151045 50 89 0.0 0.0 0.00 0.37 0.12 93 1015.8
20260506150551 50 101 0.0 0.0 0.00 0.37 0.12 93 1015.7
20260506150047 50 97 0.0 1.0 0.00 0.37 0.12 93 1015.7
20260506145549 50 10 0.0 2.0 0.00 0.37 0.12 94 1015.6
20260506145048 50 347 0.0 0.0 0.00 0.38 0.12 94 1015.4
20260506144531 50 44 0.0 2.0 0.00 0.40 0.12 94 1015.4
20260506144033 50 204 0.0 1.0 0.00 0.40 0.12 94 1015.3
20260506143529 50 37 0.0 0.0 0.00 0.40 0.12 93 1015.2
20260506143022 50 63 0.0 2.0 0.00 0.40 0.12 93 1015.2
20260506142507 50 201 0.0 5.0 0.00 0.41 0.12 93 1015.2
20260506142004 50 43 0.0 5.0 0.00 0.41 0.12 93 1014.9
20260506141508 50 156 0.0 4.0 0.00 0.41 0.12 93 1014.8
20260506141003 50 70 0.0 2.0 0.00 0.41 0.12 94 1014.7
20260506140447 50 91 0.0 0.0 0.00 0.41 0.12 94 1014.5
20260506135929 50 66 0.0 1.0 0.00 0.41 0.12 94 1014.5
20260506135416 50 102 0.0 2.0 0.00 0.41 0.12 94 1014.7
20260506134900 50 108 0.0 0.0 0.00 0.41 0.12 94 1014.5
20260506134405 50 31 0.0 5.0 0.00 0.41 0.12 94 1014.4
20260506133906 50 82 0.0 1.0 0.00 0.41 0.12 94 1014.3
20260506133406 50 162 10.0 0.0 0.00 0.41 0.12 94 1014.2
20260506132910 50 113 17.0 125.0 0.00 0.41 0.12 94 1014.1
20260506132350 51 50 10.0 91.0 0.00 0.41 0.12 94 1014.2
20260506131828 51 340 4.0 91.0 0.00 0.41 0.12 95 1014.2
20260506131309 51 67 1.0 66.0 0.00 0.41 0.12 95 1014.0
20260506130813 51 109 0.0 2.0 0.00 0.41 0.12 95 1013.8
20260506130309 51 79 0.0 4.0 0.00 0.41 0.12 95 1013.6
20260506125815 51 63 0.0 4.0 0.00 0.41 0.12 95 1013.4
20260506125313 51 65 0.0 2.0 0.00 0.41 0.12 95 1013.2
20260506124756 51 103 0.0 3.0 0.00 0.41 0.12 95 1013.0
20260506124126 51 63 0.0 3.0 0.00 0.41 0.12 95 1013.1
20260506123518 51 65 0.0 0.0 0.00 0.41 0.12 95 1013.2
20260506122859 51 37 0.0 2.0 0.00 0.41 0.12 95 1013.1
20260506122248 51 205 0.0 3.0 0.00 0.41 0.12 95 1013.0
20260506121633 51 23 0.0 2.0 0.00 0.41 0.12 95 1012.9
20260506121023 51 70 0.0 0.0 0.00 0.41 0.12 95 1013.0
20260506120402 51 84 0.0 1.0 0.00 0.41 0.12 95 1012.9
20260506115743 51 54 0.0 0.0 0.00 0.41 0.12 95 1012.7
20260506115110 51 66 0.0 0.0 0.00 0.41 0.12 95 1012.8
20260506114442 51 63 0.0 0.0 0.00 0.41 0.12 95 1013.0
20260506113812 51 63 0.0 0.0 0.00 0.41 0.12 95 1012.9
20260506113158 50 54 0.0 0.0 0.00 0.41 0.12 95 1012.9
20260506112524 50 60 0.0 0.0 0.00 0.41 0.12 95 1012.7
20260506111849 50 53 0.0 0.0 0.00 0.41 0.12 95 1012.7
20260506111224 50 76 0.0 0.0 0.00 0.41 0.12 95 1012.5
20260506110600 50 76 0.0 0.0 0.00 0.41 0.12 95 1012.4
20260506105946 50 75 0.0 0.0 0.00 0.41 0.12 95 1012.5
20260506105316 50 74 0.0 0.0 0.00 0.41 0.12 95 1012.6
20260506104645 50 73 0.0 5.0 0.00 0.41 0.12 95 1012.4
20260506104023 50 49 0.0 0.0 0.00 0.41 0.12 95 1012.6
20260506103410 50 81 0.0 1.0 0.00 0.40 0.11 95 1012.4
20260506102801 50 236 0.0 1.0 0.00 0.40 0.11 94 1012.3
20260506102151 51 42 0.0 2.0 0.00 0.40 0.11 94 1012.3
20260506101536 51 254 0.0 1.0 0.00 0.40 0.11 94 1012.8
20260506100921 51 344 0.0 0.0 0.00 0.40 0.11 94 1012.3
20260506100255 51 27 0.0 3.0 0.00 0.40 0.11 94 1012.0
20260506095627 51 54 0.0 2.0 0.00 0.40 0.11 94 1011.8
20260506094952 51 40 0.0 0.0 0.00 0.40 0.11 94 1012.0
20260506094343 51 59 0.0 2.0 0.00 0.40 0.11 94 1011.5
20260506093712 51 63 0.0 1.0 0.00 0.40 0.11 94 1011.2
20260506093052 51 318 0.0 3.0 0.00 0.40 0.11 94 1011.0
20260506092423 51 67 0.0 4.0 0.00 0.40 0.11 94 1010.7
20260506091810 51 59 0.0 6.0 0.00 0.40 0.11 94 1010.5
20260506091138 51 81 0.0 6.0 0.00 0.40 0.11 94 1010.9
20260506090528 51 18 0.0 6.0 0.00 0.40 0.11 95 1010.9
20260506085915 52 286 0.0 4.0 0.00 0.40 0.11 95 1010.9
20260506085241 52 74 0.0 4.0 0.00 0.40 0.11 95 1011.0
20260506084609 52 84 0.0 5.0 0.00 0.40 0.11 95 1011.0
20260506083950 52 75 0.0 3.0 0.00 0.40 0.11 95 1010.9
20260506083318 52 27 0.0 3.0 0.00 0.40 0.11 95 1010.9
20260506082702 52 32 0.0 1.0 0.00 0.40 0.11 95 1010.9
20260506082047 52 84 0.0 0.0 0.00 0.40 0.11 95 1010.9
20260506081431 52 58 0.0 4.0 0.05 0.40 0.11 95 1010.9
20260506080809 52 99 0.0 2.0 0.07 0.40 0.11 95 1011.0
20260506080155 52 115 0.0 0.0 0.00 0.39 0.10 95 1010.8
20260506073034 52 338 0.0 2.0 0.05 0.38 0.09 94 1010.5
20260506072404 52 120 0.0 2.0 0.11 0.38 0.09 94 1010.6
20260506071733 52 113 0.0 1.0 0.96 0.34 0.07 94 1010.6
20260506071059 52 248 0.0 0.0 0.04 0.33 0.04 94 1010.0
20260506070440 52 81 0.0 4.0 0.05 0.33 0.03 94 1009.4
20260506062509 54 117 0.0 4.0 0.00 0.31 0.01 93 1009.4
20260506061900 54 19 0.0 4.0 0.00 0.31 0.01 93 1009.1
20260506061224 55 57 0.0 8.0 0.00 0.31 0.01 93 1009.1
20260506060548 55 64 1.0 8.0 0.00 0.31 0.01 93 1008.7
20260506051410 65 41 0.0 4.0 0.00 0.29 0.00 95 1008.6
20260506050750 65 200 0.0 9.0 0.00 0.29 0.00 95 1008.5
20260506050131 65 285 0.0 3.0 0.04 0.29 0.00 95 1008.4
20260506044835 65 314 0.0 0.0 0.41 0.29 0.29 95 1007.9
20260506044218 65 19 0.0 0.0 0.92 0.23 0.24 95 1008.1
20260506043553 65 195 0.0 0.0 0.41 0.18 0.19 95 1007.8
20260506042917 65 187 0.0 0.0 0.00 0.16 0.16 95 1007.5
20260506042243 65 199 0.0 0.0 0.00 0.16 0.16 95 1007.4
20260506041622 64 195 0.0 0.0 0.00 0.16 0.16 95 1007.4
20260506041000 64 194 0.0 0.0 0.00 0.16 0.16 95 1007.5
20260506040345 64 197 0.0 0.0 0.00 0.16 0.16 95 1007.5
20260506035729 64 167 0.0 2.0 0.00 0.16 0.16 95 1007.6
20260506035116 64 193 0.0 0.0 0.00 0.16 0.16 95 1007.5
20260506034450 64 195 0.0 0.0 0.00 0.16 0.16 95 1007.5
20260506033833 64 195 0.0 0.0 0.00 0.16 0.16 95 1007.7
20260506033222 64 195 0.0 0.0 0.00 0.16 0.16 95 1007.7
20260506032548 64 195 0.0 0.0 0.00 0.16 0.16 95 1007.8
20260506031935 64 162 0.0 0.0 0.00 0.16 0.16 95 1007.8
20260506031322 63 200 0.0 1.0 0.00 0.16 0.16 95 1007.7
20260506030703 63 191 0.0 0.0 0.00 0.16 0.16 95 1007.6
20260506030027 63 198 0.0 0.0 0.00 0.16 0.16 95 1007.6
20260506025359 63 196 0.0 0.0 0.00 0.16 0.16 95 1007.7
20260506024750 63 198 0.0 0.0 0.00 0.16 0.16 95 1007.8
20260506024124 63 192 0.0 0.0 0.00 0.14 0.14 95 1007.9
20260506023505 63 191 0.0 0.0 0.00 0.14 0.14 95 1007.7
20260506022830 63 190 0.0 0.0 0.00 0.14 0.14 95 1007.8
20260506022155 63 184 0.0 0.0 0.00 0.14 0.14 95 1007.8
20260506021519 63 184 0.0 0.0 0.00 0.14 0.14 95 1007.8
20260506020857 63 184 0.0 0.0 0.00 0.14 0.14 95 1007.7
20260506020237 63 184 0.0 0.0 0.00 0.14 0.14 95 1007.5
20260506015622 63 184 0.0 0.0 0.00 0.14 0.14 95 1007.5
20260506015001 63 184 0.0 0.0 0.00 0.14 0.14 95 1007.6
20260506014340 63 184 0.0 0.0 0.00 0.14 0.14 95 1007.9
20260506013715 63 184 0.0 0.0 0.00 0.14 0.14 95 1007.8
20260506013049 63 184 0.0 0.0 0.00 0.14 0.14 95 1007.5
20260506012441 63 184 0.0 0.0 0.00 0.14 0.14 95 1007.7
20260506011807 63 179 0.0 0.0 0.00 0.14 0.14 95 1007.7
20260506011144 63 179 0.0 0.0 0.00 0.14 0.14 95 1007.9
20260506010525 63 179 0.0 0.0 0.00 0.14 0.14 95 1007.8
20260506005914 63 179 0.0 0.0 0.00 0.14 0.14 95 1007.9
20260506005306 63 179 0.0 0.0 0.00 0.14 0.14 95 1007.9
20260506004638 63 179 0.0 0.0 0.00 0.14 0.14 95 1008.0
20260506004000 63 179 0.0 0.0 0.00 0.14 0.14 95 1008.1
20260506003336 63 179 0.0 0.0 0.00 0.14 0.14 95 1008.1
20260506002710 63 179 0.0 0.0 0.00 0.14 0.14 95 1008.1
20260506002037 63 179 0.0 0.0 0.00 0.14 0.14 95 1008.2
20260506001405 63 179 0.0 0.0 0.00 0.14 0.14 95 1008.4
20260506000727 63 179 0.0 0.0 0.00 0.14 0.14 95 1008.5
20260506000115 63 179 0.0 0.0 0.00 0.14 0.14 95 1008.4
20260505235451 63 182 0.0 0.0 0.00 0.14 0.14 94 1008.5
20260505234830 63 128 0.0 0.0 0.00 0.14 0.14 94 1008.4
20260505234205 63 123 0.0 0.0 0.00 0.14 0.14 94 1008.5
20260505233550 63 162 0.0 0.0 0.00 0.14 0.14 94 1008.5
20260505232935 63 162 0.0 0.0 0.00 0.14 0.14 94 1008.6
20260505232305 63 162 0.0 0.0 0.00 0.14 0.14 94 1008.6
20260505231643 63 162 0.0 0.0 0.00 0.14 0.14 94 1008.7
20260505231025 63 162 0.0 0.0 0.00 0.14 0.14 94 1008.6
20260505230417 63 197 0.0 0.0 0.00 0.14 0.14 94 1008.8
20260505225749 63 198 0.0 0.0 0.05 0.14 0.14 94 1008.9
20260505225112 63 202 0.0 0.0 0.10 0.14 0.14 93 1008.9
20260505224443 63 191 0.0 0.0 0.05 0.13 0.13 93 1008.9
20260505223819 63 191 0.0 0.0 0.00 0.12 0.12 93 1008.9
20260505223207 63 189 0.0 0.0 0.00 0.12 0.12 93 1009.0
20260505222530 63 181 0.0 0.0 0.00 0.11 0.11 93 1008.9
20260505221912 63 184 0.0 0.0 0.00 0.11 0.11 93 1009.0
20260505221242 63 185 0.0 0.0 0.00 0.11 0.11 92 1009.0
20260505220619 63 185 0.0 0.0 0.00 0.10 0.10 92 1009.0
20260505220002 63 185 0.0 0.0 0.00 0.10 0.10 92 1008.9
20260505215344 63 185 0.0 0.0 0.00 0.10 0.10 91 1009.0
20260505214728 63 182 0.0 0.0 0.00 0.10 0.10 91 1009.1
20260505214120 63 183 0.0 0.0 0.00 0.09 0.09 90 1009.1
20260505213456 64 185 0.0 0.0 0.00 0.09 0.09 89 1009.2
20260505212835 64 186 0.0 0.0 0.00 0.09 0.09 88 1009.2
20260505212209 65 193 0.0 0.0 0.00 0.09 0.09 87 1009.3
20260505211546 65 203 0.0 0.0 0.00 0.08 0.09 85 1009.2
20260505210930 66 192 0.0 1.0 0.00 0.08 0.08 82 1009.2
20260505210257 68 142 0.0 0.0 0.00 0.08 0.08 79 1009.1
20260505205639 69 150 0.0 0.0 0.00 0.08 0.08 78 1008.9
20260505205029 69 207 0.0 2.0 0.00 0.08 0.08 75 1008.9